EST,Max TemperatureF,Mean TemperatureF,Min TemperatureF,Max Dew PointF,MeanDew PointF,Min DewpointF,Max Humidity, Mean Humidity, Min Humidity, Max Sea Level PressureIn, Mean Sea Level PressureIn, Min Sea Level PressureIn, Max VisibilityMiles, Mean VisibilityMiles, Min VisibilityMiles, Max Wind SpeedMPH, Mean Wind SpeedMPH, Max Gust SpeedMPH,PrecipitationIn, CloudCover, Events, WindDirDegrees
2013-2-1,59,46,32,37,32,23,100,68,31,30.38,30.33,30.28,10,10,10,13,2,18,0.00,0,,332
2013-2-2,62,46,30,41,31,23,100,64,32,30.40,30.29,30.18,10,10,10,8,1,,0.00,0,,211
2013-2-3,68,52,35,46,39,34,100,65,28,30.23,30.15,30.08,10,10,7,14,2,20,0.00,1,Rain,281
2013-2-4,62,48,33,43,38,34,100,71,37,30.15,30.09,30.04,10,8,2,5,0,,0.00,0,,189
2013-2-5,66,54,42,59,52,41,100,93,73,30.09,30.04,30.00,10,7,2,7,0,,0.00,6,Rain,183
2013-2-6,71,60,48,59,54,48,100,89,60,30.17,30.11,30.05,10,8,1,8,1,,0.00,4,,75
2013-2-7,57,52,46,57,54,46,100,99,94,30.10,29.95,29.80,10,7,2,13,2,17,0.00,7,Rain-Thunderstorm,30
2013-2-8,66,58,51,57,53,50,100,90,73,30.16,30.04,29.95,10,10,7,8,1,,0.00,6,,325
2013-2-9,68,50,33,50,42,34,100,75,37,30.30,30.23,30.17,10,10,2,9,3,,0.00,0,,44
2013-2-10,73,58,42,61,51,37,100,74,60,30.26,30.17,30.05,10,10,1,13,3,23,0.00,4,Rain-Thunderstorm,164
2013-2-11,64,60,55,61,59,55,100,98,83,30.14,30.10,30.07,10,8,1,9,3,,0.00,8,Rain-Thunderstorm,74
2013-2-12,60,56,53,57,54,54,100,97,82,30.09,29.98,29.79,10,9,1,10,3,,0.00,8,Rain-Thunderstorm,54
2013-2-13,64,55,46,59,51,45,100,87,59,30.02,29.88,29.77,10,8,0,13,3,23,0.00,5,Fog-Rain-Thunderstorm,280
2013-2-14,53,45,37,45,42,37,100,88,67,30.15,30.07,30.01,10,10,3,7,1,,0.00,0,,349
2013-2-15,64,48,33,48,40,34,100,78,37,30.15,30.08,30.02,10,8,2,7,1,,0.00,0,,317
2013-2-16,53,45,37,43,33,21,93,62,32,30.23,30.07,30.00,10,10,10,16,3,28,0.00,3,Rain,317
2013-2-17,51,40,30,34,26,18,93,63,26,30.39,30.31,30.23,10,10,10,9,1,,0.00,0,,246
2013-2-18,60,45,30,37,32,30,100,65,31,30.39,30.31,30.19,10,10,10,10,1,18,0.00,0,,149
2013-2-19,66,54,41,59,47,34,100,83,49,30.18,30.10,30.05,10,9,2,9,2,,0.00,3,Rain,278
2013-2-20,60,46,32,41,34,28,100,69,29,30.25,30.18,30.10,10,10,10,8,1,,0.00,0,,17
2013-2-21,69,50,32,50,38,32,100,67,30,30.18,30.08,29.98,10,10,10,9,1,,0.00,0,,118
2013-2-22,62,56,51,61,56,48,100,98,77,30.03,29.99,29.94,10,6,1,9,1,,0.00,8,Rain-Thunderstorm,67
2013-2-23,60,54,48,59,53,48,100,99,88,29.94,29.89,29.82,10,6,0,12,2,20,0.00,8,Fog-Rain-Thunderstorm,339
2013-2-24,71,56,42,54,46,43,100,78,38,30.05,29.97,29.91,10,8,0,7,2,,0.00,4,Fog-Thunderstorm,42
2013-2-25,62,56,50,57,53,46,100,96,55,29.96,29.85,29.72,10,8,2,14,5,24,0.00,8,Rain-Thunderstorm,91
2013-2-26,68,60,53,61,53,46,100,78,46,29.87,29.68,29.52,10,9,5,22,10,32,0.00,3,Rain,218
2013-2-27,59,52,46,48,43,41,100,73,55,30.01,29.95,29.88,10,10,10,10,2,16,0.00,0,,270
2013-2-28,60,50,41,45,38,34,100,67,39,30.03,29.98,29.94,10,10,10,13,3,22,0.00,0,,293